SCP
1 1 1 1 1 1 0 0 0 0 0 0 0 0 0 0 0 0 0 0 0 0 0 0 0 0 0 0 0 0 0 0 0 0 0 0 0 0 0 0 0 0 0
1 1 1 1 1 1 0 0 0 0 0 0 0 0 0 0 0 0 0 0 0 0 0 0 0 0 0 0 0 0 0 0 0 0 0 0 0 0 0 0 0 0 0
1 1 1 1 1 1 0 0 0 0 0 0 0 0 0 0 0 0 0 0 0 0 0 0 0 0 0 0 0 0 0 0 0 0 0 0 0 0 0 0 0 0 0
1 1 1 1 1 1 0 0 0 0 0 0 0 0 0 0 0 0 0 0 0 0 0 0 0 0 0 0 0 0 0 0 0 0 0 0 0 0 0 0 0 0 0
1 1 1 1 1 1 1 0 0 0 0 0 0 0 0 0 0 0 0 0 0 0 0 0 0 0 0 0 0 0 0 0 0 0 0 0 0 0 0 0 0 0 0
2 2 2 1 1 1 1 0 0 0 0 0 0 0 0 0 0 0 0 0 0 0 0 0 0 0 0 0 0 0 0 0 0 0 0 0 0 0 0 0 0 0 0
2 2 2 1 1 1 1 1 1 0 0 0 0 0 0 0 0 0 0 0 0 0 0 0 0 0 0 0 0 0 0 0 0 0 0 0 0 0 0 0 0 0 0
2 2 2 1 1 1 1 1 0 0 0 0 0 0 0 0 0 0 0 0 0 0 0 0 0 0 0 0 0 0 0 0 0 0 0 0 0 0 0 0 0 0 0
2 2 2 2 1 1 1 0 0 0 0 0 0 0 0 0 0 0 0 0 0 0 0 0 0 0 0 0 0 0 0 0 0 0 0 0 0 0 0 0 0 0 0
2 3 2 2 1 1 0 0 0 0 0 0 0 0 0 0 0 0 0 0 0 0 0 0 0 0 0 0 0 0 0 0 0 0 0 0 0 0 0 0 0 0 0
3 3 3 2 1 1 1 0 0 0 0 0 0 0 0 0 0 0 0 0 0 0 0 0 0 0 0 0 0 0 0 0 0 0 0 0 0 0 0 0 0 0 0
3 3 3 2 1 1 1 1 1 0 0 0 0 0 0 0 0 0 0 0 0 0 0 0 0 0 0 0 0 0 0 0 0 0 0 0 0 0 0 0 0 0 0
3 3 3 2 2 1 1 1 1 1 0 0 0 0 0 0 0 0 0 0 0 0 0 0 0 0 0 0 0 0 0 0 0 0 0 0 0 0 0 0 0 0 0
3 3 3 2 2 2 2 2 1 1 0 0 0 0 0 0 0 0 0 0 0 0 0 0 0 0 0 0 0 0 0 0 0 0 0 0 0 0 0 0 0 0 0
3 3 3 2 2 2 2 2 2 1 1 0 0 0 0 0 0 0 0 0 0 0 0 0 0 0 0 0 0 0 0 0 0 0 0 0 0 0 0 0 0 0 0
2 2 2 2 2 2 2 3 3 2 1 0 0 0 0 0 0 0 0 0 0 0 0 0 0 0 0 0 0 0 0 0 0 0 0 0 0 0 0 0 0 0 0
2 2 2 2 1 1 2 2 3 2 1 1 0 0 0 0 0 0 0 0 0 0 0 0 0 0 0 0 0 0 0 0 0 0 0 0 0 0 0 0 0 0 0
2 2 1 1 1 1 1 2 2 2 2 1 0 0 0 0 0 0 0 0 0 0 0 0 0 0 0 0 0 0 0 0 0 0 0 0 0 0 0 0 0 0 0
1 1 1 1 0 0 1 1 2 2 2 2 1 0 0 0 0 0 0 0 0 0 0 0 0 0 0 0 0 0 0 0 0 0 0 0 0 0 0 0 0 0 0
1 1 0 0 0 0 0 0 1 1 2 2 1 1 0 0 0 0 0 0 0 0 0 0 0 0 0 0 0 0 0 0 0 0 0 0 0 0 0 0 0 0 0
0 0 0 0 0 0 0 0 0 1 1 1 1 0 0 0 0 0 0 0 0 0 0 0 0 0 0 0 0 0 0 0 0 0 0 0 0 0 0 0 0 0 0
0 0 0 0 0 0 0 0 0 0 1 1 0 0 0 0 0 0 0 0 0 0 0 0 0 0 0 0 0 0 0 0 0 0 0 0 0 0 0 0 0 0 0
0 0 0 0 0 0 0 0 0 0 0 0 0 0 0 0 0 0 0 0 0 0 0 0 0 0 0 0 0 0 0 0 0 0 0 0 0 0 0 0 0 0 0
0 0 0 0 0 0 0 0 0 0 0 0 0 0 0 0 0 0 0 0 0 0 0 0 0 0 0 0 0 0 0 0 0 0 0 0 0 0 0 0 0 0 0
0 0 0 0 0 0 0 0 0 0 0 0 0 0 0 0 0 0 0 0 0 0 0 0 0 0 0 0 0 0 0 0 0 0 0 0 0 0 0 0 0 0 0
1 0 0 0 0 0 0 0 0 0 0 0 0 0 0 0 0 0 0 0 0 0 0 0 0 0 0 0 0 0 0 0 0 0 0 0 0 0 0 0 0 0 0
Wind_Speed
6 6 7 8 7 6 6 5 5 4 4 3 3 3 2 2 3 3 4 4 4 5 5 4 4 4 4 3 3 3 4 4 2 4 4 4 5 5 4 4 4 5 4
6 6 7 7 7 7 6 5 6 5 4 3 3 2 2 2 1 2 3 4 4 4 4 4 3 3 4 5 4 3 3 3 3 3 3 3 4 4 5 4 4 4 4
11 9 8 7 7 7 7 7 6 5 4 4 4 3 3 3 3 3 2 3 4 4 4 4 4 3 3 3 3 3 4 2 3 3 3 3 1 1 3 4 4 4 4
10 9 9 9 8 8 7 7 6 6 5 5 5 5 4 2 1 1 1 2 3 4 4 4 4 4 3 3 3 4 3 3 2 2 2 2 3 3 1 3 3 4 4
11 10 11 10 8 8 7 6 6 5 5 5 6 6 4 2 2 2 3 2 3 3 3 4 4 4 3 3 4 4 4 3 2 2 1 3 3 3 3 1 3 3 3
10 9 9 8 7 6 6 6 6 5 5 5 5 6 6 5 4 3 2 1 1 2 3 3 4 4 3 3 3 3 4 3 4 3 3 2 2 1 2 2 0 1 2
11 10 10 9 8 8 7 6 7 5 5 5 5 6 6 6 6 4 3 2 1 1 1 2 3 3 3 3 3 4 4 4 4 3 2 2 2 1 2 3 1 1 2
11 12 12 11 10 9 8 7 7 6 5 6 6 5 6 4 3 4 3 3 2 2 2 3 3 3 3 4 4 3 3 3 4 4 3 3 2 2 2 2 3 2 2
12 12 11 10 10 9 9 8 8 6 6 6 6 5 5 5 4 4 3 3 2 2 3 3 3 3 3 3 4 3 3 3 3 3 4 3 2 2 2 2 2 4 2
11 11 11 10 9 8 7 7 8 7 6 6 6 5 5 5 5 4 4 3 3 3 4 4 3 3 3 3 4 3 3 4 3 3 4 4 2 3 3 2 2 3 3
11 11 10 9 9 8 7 7 7 6 6 6 5 6 5 4 4 4 4 4 4 4 4 4 4 4 3 3 4 3 4 4 3 3 4 4 3 3 3 3 3 3 3
11 11 10 9 8 9 8 7 7 6 6 6 6 6 5 4 4 4 4 4 5 4 4 4 4 3 3 3 4 4 4 4 4 3 4 3 3 4 3 3 3 2 2
9 9 9 9 10 9 8 8 7 7 6 6 6 6 5 5 4 4 4 4 5 4 4 4 4 3 3 3 4 4 4 3 3 3 3 3 4 3 2 3 3 2 3
10 10 9 9 9 9 8 8 7 7 7 7 7 6 6 6 5 4 4 4 5 5 4 4 4 4 3 4 4 4 4 4 3 3 3 3 3 3 2 3 2 3 3
10 11 10 9 8 8 7 7 7 7 7 8 7 6 6 5 5 5 5 5 5 5 5 4 3 3 3 4 5 4 5 4 3 3 3 3 4 4 3 3 2 3 3
11 11 11 10 10 9 9 8 7 7 7 8 7 6 6 6 6 5 5 5 4 4 4 4 4 4 3 6 8 6 4 4 4 3 2 2 3 4 5 5 5 4 3
11 11 11 11 11 10 10 10 9 7 7 7 7 7 7 6 6 6 6 5 4 4 4 4 4 4 4 7 8 8 5 4 3 2 2 2 3 3 2 4 5 4 4
11 11 10 10 9 9 9 8 8 8 7 7 7 7 7 7 6 6 6 5 4 4 4 4 4 4 4 8 9 9 5 4 3 2 2 2 1 2 3 3 2 2 2
10 10 10 10 9 10 9 9 8 8 8 8 7 7 8 7 7 6 6 5 5 4 4 4 4 4 3 7 9 8 4 3 2 1 2 2 2 2 4 3 2 1 2
8 8 8 8 9 9 10 10 9 8 9 9 8 8 8 8 8 7 5 4 5 4 4 3 3 4 3 6 7 8 4 3 2 1 1 2 2 2 3 2 2 1 2
7 8 9 9 9 10 10 10 9 9 9 7 7 7 7 8 7 5 4 5 5 5 4 3 2 2 3 5 6 7 4 4 3 2 1 1 2 2 3 2 2 2 1
7 8 8 8 8 9 11 10 9 8 7 8 8 7 7 7 6 6 5 5 5 5 4 3 2 1 1 3 4 6 6 5 4 3 2 2 2 2 2 1 1 1 2
6 6 8 7 6 8 10 10 9 8 9 8 8 7 6 5 6 7 6 5 4 4 4 3 3 2 1 2 4 5 6 6 3 2 3 3 2 1 1 1 2 2 1
5 5 7 7 6 6 7 8 8 9 10 9 8 7 7 5 5 5 5 5 5 5 4 4 4 2 1 1 2 2 3 3 3 2 2 3 2 1 1 2 1 0 1
5 6 7 7 7 6 6 6 8 10 9 8 7 6 6 6 5 4 4 5 5 7 7 6 5 5 4 4 6 4 3 3 3 3 2 1 1 0 1 1 1 1 0
5 5 5 6 6 7 6 6 8 10 10 8 7 6 5 5 5 4 2 1 2 5 6 7 6 4 5 5 6 6 6 6 7 4 2 1 1 2 1 1 1 1 1
Wind_Direction
182 166 159 151 144 144 139 134 124 126 118 103 96 87 75 58 54 57 59 59 61 70 75 72 61 60 66 62 63 73 62 45 50 71 51 28 33 44 40 42 50 46 43
171 164 158 154 153 154 148 142 137 139 133 129 126 125 120 91 75 51 49 52 60 64 81 81 74 67 68 57 54 65 71 43 41 91 88 42 13 14 26 33 52 47 43
178 173 166 164 156 160 161 155 150 145 138 128 107 89 68 53 45 42 36 33 60 69 78 81 81 73 75 72 60 68 82 73 33 56 117 124 156 353 360 21 34 39 44
180 174 167 167 168 171 164 156 152 148 143 132 126 126 125 129 159 134 77 40 53 67 77 82 83 78 73 74 64 67 74 90 62 23 46 105 143 129 49 353 6 28 41
180 177 174 172 170 166 163 160 152 150 146 139 140 134 131 140 129 100 82 57 41 53 66 77 79 79 76 76 69 64 66 74 85 72 61 62 57 75 118 81 347 6 15
178 174 172 163 162 159 156 156 153 154 152 146 146 145 143 138 125 115 106 77 46 41 48 72 75 79 81 78 77 76 76 72 72 70 72 90 94 95 108 125 73 6 345
173 168 166 165 166 163 163 160 154 158 158 153 153 154 152 148 150 152 144 133 100 77 55 77 78 78 83 83 80 77 73 72 75 74 72 71 83 119 118 116 114 55 344
174 174 175 172 170 169 168 163 160 163 163 160 160 157 152 150 155 159 152 152 151 156 133 112 93 84 82 81 77 73 72 72 73 73 75 72 59 74 101 128 125 82 18
177 177 176 173 171 170 172 168 165 166 165 164 158 153 156 156 156 155 148 148 148 142 123 113 103 88 81 80 83 75 69 74 69 71 72 69 56 61 64 86 116 128 107
177 176 175 176 175 173 171 168 167 168 166 161 161 157 159 160 153 144 147 149 144 129 121 113 104 91 82 79 80 77 74 79 68 72 71 58 49 55 54 66 68 96 128
179 179 179 177 173 169 167 168 167 161 161 160 154 150 155 148 141 147 157 155 143 139 133 128 116 106 95 88 87 85 84 82 69 65 75 63 59 60 49 56 61 65 94
177 177 175 170 169 171 172 172 167 166 169 162 153 154 151 144 145 151 157 150 144 143 139 133 122 116 109 102 103 101 91 91 85 78 78 66 71 61 53 62 63 65 79
173 170 168 171 174 176 175 172 171 172 165 155 152 152 151 148 153 155 149 144 141 134 129 128 129 127 123 114 111 109 102 95 93 96 98 88 83 69 58 65 64 57 59
173 171 174 174 176 177 173 170 172 170 163 156 156 159 164 163 161 154 147 145 142 136 135 135 136 136 130 122 117 111 106 98 88 93 103 100 103 109 97 76 67 73 68
175 175 177 175 174 173 171 169 169 170 164 158 162 171 166 157 149 146 146 142 139 141 140 133 129 126 127 133 131 123 118 110 98 81 82 90 96 95 102 101 105 98 87
179 177 176 174 175 175 172 169 170 170 163 163 169 165 156 152 149 148 142 135 133 134 127 129 129 123 131 135 135 131 123 120 120 110 83 73 73 77 81 90 95 107 112
179 177 178 181 180 178 174 173 173 165 161 163 164 162 159 155 155 150 141 140 142 135 128 130 130 132 139 135 133 131 128 123 127 131 117 87 74 74 82 72 68 69 78
181 182 180 180 179 174 172 167 160 160 160 160 162 161 157 156 153 147 148 148 140 139 139 144 146 143 147 138 133 130 121 114 124 140 142 131 119 101 112 99 70 45 25
180 181 179 174 169 169 166 158 160 161 162 167 170 167 160 157 156 156 156 152 142 142 145 150 150 144 150 142 136 129 121 114 126 140 135 144 160 123 112 108 100 44 346
169 168 165 159 162 168 161 159 166 167 175 177 174 168 161 159 162 163 157 148 146 149 147 145 155 157 162 153 143 140 136 135 139 116 127 145 145 125 115 129 137 149 277
162 158 157 163 171 165 160 164 169 181 182 168 159 160 162 161 159 155 149 144 143 142 145 147 153 161 169 163 158 159 158 161 156 159 196 206 144 131 128 131 156 188 210
150 154 157 166 168 164 162 167 180 180 160 152 153 157 160 161 154 149 149 145 143 143 150 144 145 173 189 173 171 171 171 161 156 179 206 197 155 134 131 128 106 76 57
157 157 157 157 162 168 167 173 180 161 152 152 157 157 151 152 150 153 153 149 150 153 163 160 171 197 208 195 178 173 170 171 172 183 174 160 145 118 82 61 58 62 90
156 155 152 154 162 169 171 174 162 154 153 157 160 156 152 148 148 154 159 160 169 171 173 177 185 191 185 192 183 177 169 166 168 169 151 127 112 104 76 42 25 66 160
152 154 159 165 169 162 162 160 155 152 154 157 158 156 155 155 155 160 168 174 189 188 182 188 182 176 194 209 182 167 172 174 173 141 103 86 77 45 352 335 321 320 337
143 151 158 161 164 159 159 159 158 157 156 157 159 159 157 157 157 152 140 134 170 183 183 179 175 187 193 179 174 176 175 171 157 133 143 181 195 212 233 249 275 276 268